Simultaneous Nadir Overpasses (SNOs) Predictions

Prediction of SNOs between FY3D and NOAA-19 Satellite Orbit:

Table of predicted SNOs for the next 14.0 days since TLE Epoch: 1/30/2021
Index Date (FY3D) Time (FY3D) Lat,Lon (FY3D) SZA (FY3D ) Date (NOAA-19) Time (NOAA-19) Lat,Lon (NOAA-19) SZA (NOAA-19 ) Distance(km) Time Diff (sec)
1 02/02/2021 09:54:27 78.83, 3.92 96.98 02/02/2021 09:53:15 78.80, 3.98 96.98 3.18 72
2 02/02/2021 10:45:10 -78.80, 171.39 83.07 02/02/2021 10:44:11 -78.81, 171.33 83.03 1.66 59
3 02/02/2021 11:35:56 78.83, -21.45 96.96 02/02/2021 11:35:15 78.82, -21.41 96.96 1.63 41
4 02/02/2021 12:26:39 -78.80, 146.02 83.09 02/02/2021 12:26:11 -78.83, 145.94 83.05 3.06 28
5 02/02/2021 13:17:25 78.83, -46.83 96.94 02/02/2021 13:17:15 78.83, -46.80 96.94 0.68 10
6 02/02/2021 14:08:09 -78.84, 120.41 83.06 02/02/2021 14:08:11 -78.84, 120.55 83.07 3.08 2
7 02/02/2021 14:58:54 78.83, -72.20 96.92 02/02/2021 14:59:15 78.85, -72.19 96.93 1.86 21
8 02/02/2021 15:49:38 -78.84, 95.04 83.08 02/02/2021 15:50:11 -78.86, 95.16 83.09 3.19 33
9 02/02/2021 16:40:23 78.83, -97.57 96.90 02/02/2021 16:41:15 78.86, -97.58 96.91 3.41 52
10 02/02/2021 17:31:07 -78.84, 69.66 83.10 02/02/2021 17:32:12 -78.84, 69.52 83.11 3.06 65



Historial Predications of SNOs between FY3D and NOAA-19
